Погода в Аяне

Погода в Аяне : погода сейчас, прогноз погоды и архив. Всё, что Вы хотите узнать о погоде в Аяне!

Хотите узнать прогноз погоды в Аяне? Тогда Вам сюда: Погода в Аяне

Поиск расширенной информации на нашем сайте:

Другие новости

Новости СМИ2

Главная страница сайта

Новости сайта

03.07.2017

Напоминаем, что на нашем специализированном сайте Метеоцентр.Азия вы можете получить высокодетализированные автоматические прогнозы погоды по пунктам России, СНГ и мира в авиационном формате (включающие направление и скорость ветра, видимость, явления погоды, количество и форму облачности, нижнюю и верхнюю границу облачности).


Погода в Аяне - сегодня

Время (UTC), дата Ветер
(°,м/с) 
Видим.   Явления Облачность Т
(°С)
Тd
(°С)
f(%) Тe
(°С)
Pmin
(гПа)
dP
(гПа)
Po
(мм)
O2
(г/м3)
Тmin Tmax R s Состояние
почвы
09 13.01.18 020 (С) 20000 м    ясно 
-25.1 -29.4 67 -26  1016.5  -1  762  340    -17       
12 13.01.18 020 (С) 20000 м    ясно 
-25.4 -29.3 70 -26  1015.3  -1.2  761  340           
15 13.01.18 010 (С) н/о    н/о 
-24.9 -28.4 73 -25  1013.9  -1.4  760  339           
18 13.01.18 тихо ()   н/о    н/о 
-22.3 -26.1 71 -22  1013.4  -0.5  759  335           
21 13.01.18 020 (С) 20000 м    ясно 
-20.9 -24.5 73 -21  1013  -0.4  759  333  -26.1      равномерный
сухой снег
100% 
00 14.01.18 010 (С) 20000 м    10/0 верхняя 
[Ci fib]
-20.5 -24.1 73 -21  1012.6  -0.4  759  332           
03 14.01.18 020 (С) 20000 м    10/0 верхняя 
[Cs]
-16.2 -22.4 59 -20  1011.2  -1.4  758  326           
06 14.01.18 030 (СВ) 10 км  слаб. снег  10/0 средняя 
[As op]
-15.8 -18.7 78 -18  1010.3  -0.9  757  325           
09 14.01.18 340 (С) 10 км  слаб. снег  10/0 средняя 
[As op]
-16.1 -18.9 79 -16  1010.8  0.5  758  326    -15.6  0.0     
12 14.01.18 010 (С) 20000 м  {снег}  10/0 средняя 
[As op]
-17.9 -20.3 81 -18  1010.8  0.1  758  328           
15 14.01.18 030 (СВ) 20000 м    ясно 
-20.6 -23.4 78 -21  1010.5  0.1  757  332           
18 14.01.18 210 (ЮЗ) 20000 м    ясно 
-15 -22.6 52 -15  1010.6  0.1  757  325           
21 14.01.18 210 (ЮЗ) 20000 м    ясно 
-15 -25 42 -15  1010.6  0.1  757  325  -21.2    0.4  равномерный
сухой снег
100% 
00 15.01.18 200 (Ю) 20000 м    ясно 
-14.3 -26.3 35 -16  1010.9  0.3  758  324           
03 15.01.18 210 (ЮЗ) 20000 м    ясно 
-11.7 -25.7 30 -15  1010.2  -0.7  757  320           
06 15.01.18 020 (С) 20000 м    ясно 
-12.6 -25.6 33 -13  1009.9  -0.3  757  321           
09 15.01.18 240 (ЮЗ) 20000 м    ясно 
-14.1 -25.7 37 -14  1010.9  758  324    -11.2       
12 15.01.18 180 (Ю) 20000 м    ясно 
-14.2 -25.6 37 -14  1010.7  -0.2  757  324           
15 15.01.18 090 (В) 20000 м    ясно 
-13.9 -25.6 37 -14  1010.6  0.1  757  323           
18 15.01.18 190 (Ю) 20000 м    ясно 
-14.3 -25.6 38 -14  1010.6  757  324           
21 15.01.18 330 (СЗ) 20000 м    ясно 
-13.7 -25.5 36 -16  1011  0.4  758  323  -16.2      равномерный
сухой снег
100% 
00 16.01.18 220 (ЮЗ) 20000 м    ясно 
-13.8 -26.1 35 -14  1011.4  0.4  758  323           
03 16.01.18 200 (Ю) 20000 м    ясно 
-10.6 -25.1 29 -12  1011.1  -0.3  758  319           
06 16.01.18 330 (СЗ) 20000 м    ясно 
-11.3 -24.4 33 -11  1011  -0.1  758  320           
09 16.01.18 200 (Ю) 20000 м    ясно 
-12.9 -24.4 38 -15  1011.4  0.4  758  322    -10.2       
Время (UTC), дата Ветер
(°,м/с) 
Видим.   Явления Облачность Т
(°С)
Тd
(°С)
f(%) Тe
(°С)
Pmin
(гПа)
dP
(гПа)
Po
(мм)
O2
(г/м3)
Тmin Tmax R s Состояние
почвы

Для получения пояснительной информации подведите курсор к названию столбца.

ПОГОДА в Аяне - архив

Всё, что Вы хотите узнать о погоде в Аяне - удобно и подробно!

Выберите нужную дату (начиная с 1 января 2015* года) и нажмите кнопку "Найти".
Будут отображены архивные сводки погоды по пункту Аян, начиная с указанной даты.


Отображать данные в формате CSV (для использования в таблицах Excel)


Внимание! Наш архив погоды предназначен исключительно для личного некоммерческого использования в познавательных целях. Если Вам необходимы официальные справки о состоянии погоды (для производственных, юридических, коммерческих и т.п. целей), обращайтесь в органы Росгидромета.

*Примечание: данная дата относится к архиву по метеостанциям СССР (Россия, СНГ, Балтия).
Архив по метеостанциям Зарубежной Европы и Азии (кроме Китая) хранится 10 дней, по другим регионам земного шара (Китай, Африка, Америка, Австралия, Океания) - 1 день.

Аян - район местоположения метеостанции


Название, широта, долгота, высота метеостанции:
Аян 56.4°ш. 138.2°д. 8 м над ур. моря [Российская Федерация]

Дополнительная информация

В oтличие oт бoльшинства пoгoдных сайтoв мы публикуем пoдрoбную метеoинфoрмацию в детальнoм прoфессиoнальнoм фoрмате.

Характеристики температуры и влажнoсти вoздуха измеряются на высoте 2 м в тени вдали oт зданий и деревьев.
Скoрoсть ветра измеряется на высoте 10 м (на урoвне рoста челoвека скoрoсть ветра ниже в 1.5-2 раза). Если метеoстанция нахoдится в гoрoде или в лесу, тo скoрoсть ветра занижена на 2-4 м/с пo сравнению с oткрытым местoм. Скoрoсть ветра над акватoриями крупных рек и oзёр, а также на вершинах хoлмoв на 2-5 м/с выше, чем в oбычных услoвиях.
Атмoсфернoе давление в разных тoчках местнoсти мoжет значительнo oтличаться oт давления на метеoстанции, в зависимoсти oт услoвий рельефа (при пoдъёме на 10 м давление пoнижается примернo на 1 мм рт.ст.).